Year,Month,Day,Hour,Minute,Value (Times are PST for temperature in C)
2021,08,11,00,00,19.90
2021,08,11,00,01,19.90
2021,08,11,00,02,19.90
2021,08,11,00,03,19.90
2021,08,11,00,04,19.90
2021,08,11,00,05,19.90
2021,08,11,00,06,19.90
2021,08,11,00,07,19.80
2021,08,11,00,08,19.80
2021,08,11,00,09,19.80
2021,08,11,00,10,19.80
2021,08,11,00,11,19.80
2021,08,11,00,12,19.80
2021,08,11,00,13,19.80
2021,08,11,00,14,19.80
2021,08,11,00,15,19.80
2021,08,11,00,16,19.80
2021,08,11,00,17,19.80
2021,08,11,00,18,19.80
2021,08,11,00,19,19.70
2021,08,11,00,20,19.70
2021,08,11,00,21,19.70
2021,08,11,00,22,19.70
2021,08,11,00,23,19.60
2021,08,11,00,24,19.60
2021,08,11,00,25,19.60
2021,08,11,00,26,19.60
2021,08,11,00,27,19.60
2021,08,11,00,28,19.50
2021,08,11,00,29,19.50
2021,08,11,00,30,19.50
2021,08,11,00,31,19.50
2021,08,11,00,32,19.50
2021,08,11,00,33,19.40
2021,08,11,00,34,19.40
2021,08,11,00,35,19.40
2021,08,11,00,36,19.40
2021,08,11,00,37,19.40
2021,08,11,00,38,19.40
2021,08,11,00,39,19.30
2021,08,11,00,40,19.30
2021,08,11,00,41,19.30
2021,08,11,00,42,19.30
2021,08,11,00,43,19.30
2021,08,11,00,44,19.20
2021,08,11,00,45,19.20
2021,08,11,00,46,19.20
2021,08,11,00,47,19.20
2021,08,11,00,48,19.10
2021,08,11,00,49,19.10
2021,08,11,00,50,19.10
2021,08,11,00,51,19.10
2021,08,11,00,52,19.10
2021,08,11,00,53,19.10
2021,08,11,00,54,19.10
2021,08,11,00,55,19.10
2021,08,11,00,56,19.10
2021,08,11,00,57,19.10
2021,08,11,00,58,19.10
2021,08,11,00,59,19.10
2021,08,11,01,00,19.10
2021,08,11,01,01,19.10
2021,08,11,01,02,19.10
2021,08,11,01,03,19.10
2021,08,11,01,04,19.10
2021,08,11,01,05,19.10
2021,08,11,01,06,19.10
2021,08,11,01,07,19.10
2021,08,11,01,08,19.10
2021,08,11,01,09,19.10
2021,08,11,01,10,19.10
2021,08,11,01,11,19.00
2021,08,11,01,12,18.90
2021,08,11,01,13,18.90
2021,08,11,01,14,18.90
2021,08,11,01,15,18.90
2021,08,11,01,16,18.90
2021,08,11,01,17,18.90
2021,08,11,01,18,18.90
2021,08,11,01,19,18.90
2021,08,11,01,20,18.90
2021,08,11,01,21,18.90
2021,08,11,01,22,18.90
2021,08,11,01,23,18.80
2021,08,11,01,24,18.80
2021,08,11,01,25,18.80
2021,08,11,01,26,18.80
2021,08,11,01,27,18.80
2021,08,11,01,28,18.80
2021,08,11,01,29,18.80
2021,08,11,01,30,18.80
2021,08,11,01,31,18.80
2021,08,11,01,32,18.80
2021,08,11,01,33,18.80
2021,08,11,01,34,18.80
2021,08,11,01,35,18.80
2021,08,11,01,36,18.80
2021,08,11,01,37,18.70
2021,08,11,01,38,18.70
2021,08,11,01,39,18.70
2021,08,11,01,40,18.70
2021,08,11,01,41,18.70
2021,08,11,01,42,18.70
2021,08,11,01,43,18.70
2021,08,11,01,44,18.70
2021,08,11,01,45,18.70
2021,08,11,01,46,18.70
2021,08,11,01,47,18.70
2021,08,11,01,48,18.60
2021,08,11,01,49,18.60
2021,08,11,01,50,18.60
2021,08,11,01,51,18.60
2021,08,11,01,52,18.60
2021,08,11,01,53,18.60
2021,08,11,01,54,18.60
2021,08,11,01,55,18.60
2021,08,11,01,56,18.50
2021,08,11,01,57,18.50
2021,08,11,01,58,18.50
2021,08,11,01,59,18.50
2021,08,11,02,00,18.50
2021,08,11,02,01,18.50
2021,08,11,02,02,18.50
2021,08,11,02,03,18.50
2021,08,11,02,04,18.50
2021,08,11,02,05,18.50
2021,08,11,02,06,18.50
2021,08,11,02,07,18.50
2021,08,11,02,08,18.50
2021,08,11,02,09,18.50
2021,08,11,02,10,18.40
2021,08,11,02,11,18.40
2021,08,11,02,12,18.40
2021,08,11,02,13,18.40
2021,08,11,02,14,18.40
2021,08,11,02,15,18.40
2021,08,11,02,16,18.40
2021,08,11,02,17,18.40
2021,08,11,02,18,18.40
2021,08,11,02,19,18.40
2021,08,11,02,20,18.40
2021,08,11,02,21,18.40
2021,08,11,02,22,18.40
2021,08,11,02,23,18.40
2021,08,11,02,24,18.40
2021,08,11,02,25,18.40
2021,08,11,02,26,18.40
2021,08,11,02,27,18.40
2021,08,11,02,28,18.30
2021,08,11,02,29,18.30
2021,08,11,02,30,18.30
2021,08,11,02,31,18.30
2021,08,11,02,32,18.30
2021,08,11,02,33,18.30
2021,08,11,02,34,18.30
2021,08,11,02,35,18.30
2021,08,11,02,36,18.30
2021,08,11,02,37,18.30
2021,08,11,02,38,18.30
2021,08,11,02,39,18.30
2021,08,11,02,40,18.30
2021,08,11,02,41,18.20
2021,08,11,02,42,18.20
2021,08,11,02,43,18.20
2021,08,11,02,44,18.20
2021,08,11,02,45,18.20
2021,08,11,02,46,18.20
2021,08,11,02,47,18.20
2021,08,11,02,48,18.20
2021,08,11,02,49,18.20
2021,08,11,02,50,18.20
2021,08,11,02,51,18.20
2021,08,11,02,52,18.20
2021,08,11,02,53,18.20
2021,08,11,02,54,18.20
2021,08,11,02,55,18.20
2021,08,11,02,56,18.10
2021,08,11,02,57,18.10
2021,08,11,02,58,18.10
2021,08,11,02,59,18.10
2021,08,11,03,00,18.10
2021,08,11,03,01,18.10
2021,08,11,03,02,18.10
2021,08,11,03,03,18.10
2021,08,11,03,04,18.10
2021,08,11,03,05,18.10
2021,08,11,03,06,18.10
2021,08,11,03,07,18.10
2021,08,11,03,08,18.10
2021,08,11,03,09,18.10
2021,08,11,03,10,18.10
2021,08,11,03,11,18.10
2021,08,11,03,12,18.10
2021,08,11,03,13,18.10
2021,08,11,03,14,18.10
2021,08,11,03,15,18.10
2021,08,11,03,16,18.10
2021,08,11,03,17,18.10
2021,08,11,03,18,18.10
2021,08,11,03,19,18.10
2021,08,11,03,20,18.10
2021,08,11,03,21,18.00
2021,08,11,03,22,17.90
2021,08,11,03,23,17.90
2021,08,11,03,24,17.90
2021,08,11,03,25,17.90
2021,08,11,03,26,17.90
2021,08,11,03,27,17.90
2021,08,11,03,28,17.90
2021,08,11,03,29,17.90
2021,08,11,03,30,17.90
2021,08,11,03,31,17.90
2021,08,11,03,32,17.90
2021,08,11,03,33,17.90
2021,08,11,03,34,17.90
2021,08,11,03,35,17.90
2021,08,11,03,36,17.80
2021,08,11,03,37,17.80
2021,08,11,03,38,17.80
2021,08,11,03,39,17.80
2021,08,11,03,40,17.80
2021,08,11,03,41,17.80
2021,08,11,03,42,17.80
2021,08,11,03,43,17.80
2021,08,11,03,44,17.80
2021,08,11,03,45,17.80
2021,08,11,03,46,17.70
2021,08,11,03,47,17.70
2021,08,11,03,48,17.70
2021,08,11,03,49,17.70
2021,08,11,03,50,17.70
2021,08,11,03,51,17.70
2021,08,11,03,52,17.70
2021,08,11,03,53,17.70
2021,08,11,03,54,17.70
2021,08,11,03,55,17.70
2021,08,11,03,56,17.60
2021,08,11,03,57,17.60
2021,08,11,03,58,17.60
2021,08,11,03,59,17.60
2021,08,11,04,00,17.60
2021,08,11,04,01,17.60
2021,08,11,04,02,17.50
2021,08,11,04,03,17.50
2021,08,11,04,04,17.50
2021,08,11,04,05,17.50
2021,08,11,04,06,17.50
2021,08,11,04,07,17.50
2021,08,11,04,08,17.50
2021,08,11,04,09,17.50
2021,08,11,04,10,17.50
2021,08,11,04,11,17.50
2021,08,11,04,12,17.50
2021,08,11,04,13,17.40
2021,08,11,04,14,17.40
2021,08,11,04,15,17.40
2021,08,11,04,16,17.40
2021,08,11,04,17,17.40
2021,08,11,04,18,17.40
2021,08,11,04,19,17.40
2021,08,11,04,20,17.40
2021,08,11,04,21,17.40
2021,08,11,04,22,17.30
2021,08,11,04,23,17.30
2021,08,11,04,24,17.30
2021,08,11,04,25,17.30
2021,08,11,04,26,17.30
2021,08,11,04,27,17.30
2021,08,11,04,28,17.30
2021,08,11,04,29,17.30
2021,08,11,04,30,17.30
2021,08,11,04,31,17.30
2021,08,11,04,32,17.30
2021,08,11,04,33,17.30
2021,08,11,04,34,17.30
2021,08,11,04,35,17.30
2021,08,11,04,36,17.30
2021,08,11,04,37,17.30
2021,08,11,04,38,17.30
2021,08,11,04,39,17.30
2021,08,11,04,40,17.30
2021,08,11,04,41,17.30
2021,08,11,04,42,17.30
2021,08,11,04,43,17.30
2021,08,11,04,44,17.30
2021,08,11,04,45,17.30
2021,08,11,04,46,17.30
2021,08,11,04,47,17.30
2021,08,11,04,48,17.30
2021,08,11,04,49,17.30
2021,08,11,04,50,17.30
2021,08,11,04,51,17.20
2021,08,11,04,52,17.20
2021,08,11,04,53,17.20
2021,08,11,04,54,17.20
2021,08,11,04,55,17.20
2021,08,11,04,56,17.10
2021,08,11,04,57,17.10
2021,08,11,04,58,17.10
2021,08,11,04,59,17.10
2021,08,11,05,00,17.10
2021,08,11,05,01,17.10
2021,08,11,05,02,17.10
2021,08,11,05,03,17.10
2021,08,11,05,04,17.10
2021,08,11,05,05,17.00
2021,08,11,05,06,17.00
2021,08,11,05,07,17.00
2021,08,11,05,08,17.00
2021,08,11,05,09,17.00
2021,08,11,05,10,17.00
2021,08,11,05,11,17.00
2021,08,11,05,12,17.00
2021,08,11,05,13,17.00
2021,08,11,05,14,17.00
2021,08,11,05,15,17.00
2021,08,11,05,16,17.00
2021,08,11,05,17,17.00
2021,08,11,05,18,17.00
2021,08,11,05,19,17.00
2021,08,11,05,20,17.00
2021,08,11,05,21,17.00
2021,08,11,05,22,17.00
2021,08,11,05,23,17.00
2021,08,11,05,24,17.00
2021,08,11,05,25,16.90
2021,08,11,05,26,16.90
2021,08,11,05,27,16.90
2021,08,11,05,28,16.90
2021,08,11,05,29,16.90
2021,08,11,05,30,16.90
2021,08,11,05,31,16.90
2021,08,11,05,32,16.90
2021,08,11,05,33,16.90
2021,08,11,05,34,16.90
2021,08,11,05,35,16.90
2021,08,11,05,36,16.90
2021,08,11,05,37,16.90
2021,08,11,05,38,16.90
2021,08,11,05,39,16.90
2021,08,11,05,40,16.90
2021,08,11,05,41,16.90
2021,08,11,05,42,16.90
2021,08,11,05,43,16.90
2021,08,11,05,44,16.90
2021,08,11,05,45,16.80
2021,08,11,05,46,16.80
2021,08,11,05,47,16.80
2021,08,11,05,48,16.80
2021,08,11,05,49,16.80
2021,08,11,05,50,16.80
2021,08,11,05,51,16.80
2021,08,11,05,52,16.80
2021,08,11,05,53,16.80
2021,08,11,05,54,16.80
2021,08,11,05,55,16.80
2021,08,11,05,56,16.80
2021,08,11,05,57,16.80
2021,08,11,05,58,16.80
2021,08,11,05,59,16.80
2021,08,11,06,00,16.80
2021,08,11,06,01,16.80
2021,08,11,06,02,16.80
2021,08,11,06,03,16.80
2021,08,11,06,04,16.80
2021,08,11,06,05,16.80
2021,08,11,06,06,16.80
2021,08,11,06,07,16.80
2021,08,11,06,08,16.80
2021,08,11,06,09,16.80
2021,08,11,06,10,16.80
2021,08,11,06,11,16.80
2021,08,11,06,12,16.80
2021,08,11,06,13,16.80
2021,08,11,06,14,16.80
2021,08,11,06,15,16.80
2021,08,11,06,16,16.70
2021,08,11,06,17,16.70
2021,08,11,06,18,16.70
2021,08,11,06,19,16.70
2021,08,11,06,20,16.70
2021,08,11,06,21,16.70
2021,08,11,06,22,16.70
2021,08,11,06,23,16.70
2021,08,11,06,24,16.70
2021,08,11,06,25,16.70
2021,08,11,06,26,16.70
2021,08,11,06,27,16.70
2021,08,11,06,28,16.70
2021,08,11,06,29,16.70
2021,08,11,06,30,16.70
2021,08,11,06,31,16.70
2021,08,11,06,32,16.70
2021,08,11,06,33,16.70
2021,08,11,06,34,16.70
2021,08,11,06,35,16.70
2021,08,11,06,36,16.70
2021,08,11,06,37,16.70
2021,08,11,06,38,16.70
2021,08,11,06,39,16.70
2021,08,11,06,40,16.70
2021,08,11,06,41,16.70
2021,08,11,06,42,16.70
2021,08,11,06,43,16.80
2021,08,11,06,44,16.80
2021,08,11,06,45,16.80
2021,08,11,06,46,16.90
2021,08,11,06,47,16.90
2021,08,11,06,48,16.90
2021,08,11,06,49,16.90
2021,08,11,06,50,16.90
2021,08,11,06,51,16.90
2021,08,11,06,52,16.90
2021,08,11,06,53,16.90
2021,08,11,06,54,17.00
2021,08,11,06,55,17.00
2021,08,11,06,56,17.00
2021,08,11,06,57,17.00
2021,08,11,06,58,17.00
2021,08,11,06,59,17.00
2021,08,11,07,00,17.00
2021,08,11,07,01,17.10
2021,08,11,07,02,17.10
2021,08,11,07,03,17.10
2021,08,11,07,04,17.10
2021,08,11,07,05,17.20
2021,08,11,07,06,17.20
2021,08,11,07,07,17.20
2021,08,11,07,08,17.30
2021,08,11,07,09,17.30
2021,08,11,07,10,17.30
2021,08,11,07,11,17.30
2021,08,11,07,12,17.30
2021,08,11,07,13,17.40
2021,08,11,07,14,17.40
2021,08,11,07,15,17.40
2021,08,11,07,16,17.40
2021,08,11,07,17,17.50
2021,08,11,07,18,17.50
2021,08,11,07,19,17.50
2021,08,11,07,20,17.60
2021,08,11,07,21,17.60
2021,08,11,07,22,17.60
2021,08,11,07,23,17.70
2021,08,11,07,24,17.70
2021,08,11,07,25,17.70
2021,08,11,07,26,17.80
2021,08,11,07,27,17.80
2021,08,11,07,28,18.00
2021,08,11,07,29,18.10
2021,08,11,07,30,18.20
2021,08,11,07,31,18.30
2021,08,11,07,32,18.40
2021,08,11,07,33,18.50
2021,08,11,07,34,18.60
2021,08,11,07,35,18.80
2021,08,11,07,36,19.00
2021,08,11,07,37,19.10
2021,08,11,07,38,19.20
2021,08,11,07,39,19.30
2021,08,11,07,40,19.50
2021,08,11,07,41,19.60
2021,08,11,07,42,19.70
2021,08,11,07,43,19.70
2021,08,11,07,44,19.80
2021,08,11,07,45,19.90
2021,08,11,07,46,19.90
2021,08,11,07,47,19.90
2021,08,11,07,48,19.90
2021,08,11,07,49,19.90
2021,08,11,07,50,19.90
2021,08,11,07,51,20.00
2021,08,11,07,52,20.10
2021,08,11,07,53,20.10
2021,08,11,07,54,20.20
2021,08,11,07,55,20.20
2021,08,11,07,56,20.20
2021,08,11,07,57,20.30
2021,08,11,07,58,20.40
2021,08,11,07,59,20.50
2021,08,11,08,00,20.60
2021,08,11,08,01,20.70
2021,08,11,08,02,20.80
2021,08,11,08,03,20.90
2021,08,11,08,04,21.00
2021,08,11,08,05,21.10
2021,08,11,08,06,21.30
2021,08,11,08,07,21.30
2021,08,11,08,08,21.30
2021,08,11,08,09,21.30
2021,08,11,08,10,21.30
2021,08,11,08,11,21.40
2021,08,11,08,12,21.50
2021,08,11,08,13,21.60
2021,08,11,08,14,21.60
2021,08,11,08,15,21.70
2021,08,11,08,16,21.80
2021,08,11,08,17,21.90
2021,08,11,08,18,22.00
2021,08,11,08,19,22.00
2021,08,11,08,20,22.10
2021,08,11,08,21,22.20
2021,08,11,08,22,22.30
2021,08,11,08,23,22.40
2021,08,11,08,24,22.40
2021,08,11,08,25,22.40
2021,08,11,08,26,22.40
2021,08,11,08,27,22.40
2021,08,11,08,28,22.40
2021,08,11,08,29,22.40
2021,08,11,08,30,22.40
2021,08,11,08,31,22.40
2021,08,11,08,32,22.40
2021,08,11,08,33,22.40
2021,08,11,08,34,22.40
2021,08,11,08,35,22.30
2021,08,11,08,36,22.30
2021,08,11,08,37,22.30
2021,08,11,08,38,22.30
2021,08,11,08,39,22.30
2021,08,11,08,40,22.30
2021,08,11,08,41,22.30
2021,08,11,08,42,22.30
2021,08,11,08,43,22.30
2021,08,11,08,44,22.40
2021,08,11,08,45,22.40
2021,08,11,08,46,22.40
2021,08,11,08,47,22.40
2021,08,11,08,48,22.50
2021,08,11,08,49,22.40
2021,08,11,08,50,22.50
2021,08,11,08,51,22.50
2021,08,11,08,52,22.50
2021,08,11,08,53,22.50
2021,08,11,08,54,22.50
2021,08,11,08,55,22.50
2021,08,11,08,56,22.50
2021,08,11,08,57,22.60
2021,08,11,08,58,22.60
2021,08,11,08,59,22.60
2021,08,11,09,00,22.70
2021,08,11,09,01,22.80
2021,08,11,09,02,22.90
2021,08,11,09,03,22.90
2021,08,11,09,04,22.90
2021,08,11,09,05,22.90
2021,08,11,09,06,22.80
2021,08,11,09,07,22.80
2021,08,11,09,08,22.80
2021,08,11,09,09,22.80
2021,08,11,09,10,22.90
2021,08,11,09,11,22.90
2021,08,11,09,12,22.90
2021,08,11,09,13,22.90
2021,08,11,09,14,22.90
2021,08,11,09,15,22.90
2021,08,11,09,16,23.00
2021,08,11,09,17,23.10
2021,08,11,09,18,23.20
2021,08,11,09,19,23.20
2021,08,11,09,20,23.30
2021,08,11,09,21,23.30
2021,08,11,09,22,23.40
2021,08,11,09,23,23.50
2021,08,11,09,24,23.60
2021,08,11,09,25,23.70
2021,08,11,09,26,23.70
2021,08,11,09,27,23.80
2021,08,11,09,28,23.90
2021,08,11,09,29,24.00
2021,08,11,09,30,24.10
2021,08,11,09,31,24.20
2021,08,11,09,32,24.40
2021,08,11,09,33,24.50
2021,08,11,09,34,24.60
2021,08,11,09,35,24.70
2021,08,11,09,36,24.70
2021,08,11,09,37,24.80
2021,08,11,09,38,24.80
2021,08,11,09,39,24.90
2021,08,11,09,40,25.00
2021,08,11,09,41,25.00
2021,08,11,09,42,25.00
2021,08,11,09,43,25.00
2021,08,11,09,44,24.90
2021,08,11,09,45,24.90
2021,08,11,09,46,24.90
2021,08,11,09,47,24.90
2021,08,11,09,48,25.00
2021,08,11,09,49,25.10
2021,08,11,09,50,25.10
2021,08,11,09,51,25.20
2021,08,11,09,52,25.20
2021,08,11,09,53,25.20
2021,08,11,09,54,25.20
2021,08,11,09,55,25.20
2021,08,11,09,56,25.20
2021,08,11,09,57,25.20
2021,08,11,09,58,25.20
2021,08,11,09,59,25.20
2021,08,11,10,00,25.10
2021,08,11,10,01,25.00
2021,08,11,10,02,25.00
2021,08,11,10,03,25.00
2021,08,11,10,04,25.00
2021,08,11,10,05,25.10
2021,08,11,10,06,25.10
2021,08,11,10,07,25.20
2021,08,11,10,08,25.30
2021,08,11,10,09,25.30
2021,08,11,10,10,25.40
2021,08,11,10,11,25.50
2021,08,11,10,12,25.60
2021,08,11,10,13,25.60
2021,08,11,10,14,25.70
2021,08,11,10,15,25.80
2021,08,11,10,16,25.80
2021,08,11,10,17,25.90
2021,08,11,10,18,26.00
2021,08,11,10,19,26.10
2021,08,11,10,20,26.20
2021,08,11,10,21,26.20
2021,08,11,10,22,26.20
2021,08,11,10,23,26.20
2021,08,11,10,24,26.30
2021,08,11,10,25,26.30
2021,08,11,10,26,26.30
2021,08,11,10,27,26.40
2021,08,11,10,28,26.40
2021,08,11,10,29,26.40
2021,08,11,10,30,26.40
2021,08,11,10,31,26.40
2021,08,11,10,32,26.40
2021,08,11,10,33,26.50
2021,08,11,10,34,26.50
2021,08,11,10,35,26.60
2021,08,11,10,36,26.60
2021,08,11,10,37,26.60
2021,08,11,10,38,26.60
2021,08,11,10,39,26.70
2021,08,11,10,40,26.70
2021,08,11,10,41,26.70
2021,08,11,10,42,26.80
2021,08,11,10,43,26.80
2021,08,11,10,44,26.90
2021,08,11,10,45,27.00
2021,08,11,10,46,27.10
2021,08,11,10,47,27.20
2021,08,11,10,48,27.20
2021,08,11,10,49,27.20
2021,08,11,10,50,27.30
2021,08,11,10,51,27.30
2021,08,11,10,52,27.40
2021,08,11,10,53,27.50
2021,08,11,10,54,27.60
2021,08,11,10,55,27.50
2021,08,11,10,56,27.40
2021,08,11,10,57,27.30
2021,08,11,10,58,27.30
2021,08,11,10,59,27.20
2021,08,11,11,00,27.20
2021,08,11,11,01,27.20
2021,08,11,11,02,27.20
2021,08,11,11,03,27.20
2021,08,11,11,04,27.30
2021,08,11,11,05,27.30
2021,08,11,11,06,27.40
2021,08,11,11,07,27.50
2021,08,11,11,08,27.60
2021,08,11,11,09,27.70
2021,08,11,11,10,27.80
2021,08,11,11,11,27.90
2021,08,11,11,12,27.90
2021,08,11,11,13,28.00
2021,08,11,11,14,28.00
2021,08,11,11,15,28.10
2021,08,11,11,16,28.00
2021,08,11,11,17,27.90
2021,08,11,11,18,27.90
2021,08,11,11,19,27.90
2021,08,11,11,20,27.90
2021,08,11,11,21,28.00
2021,08,11,11,22,28.00
2021,08,11,11,23,28.10
2021,08,11,11,24,28.10
2021,08,11,11,25,28.20
2021,08,11,11,26,28.20
2021,08,11,11,27,28.20
2021,08,11,11,28,28.10
2021,08,11,11,29,28.00
2021,08,11,11,30,27.80
2021,08,11,11,31,27.70
2021,08,11,11,32,27.70
2021,08,11,11,33,27.80
2021,08,11,11,34,27.80
2021,08,11,11,35,27.90
2021,08,11,11,36,27.90
2021,08,11,11,37,28.00
2021,08,11,11,38,28.10
2021,08,11,11,39,28.20
2021,08,11,11,40,28.20
2021,08,11,11,41,28.20
2021,08,11,11,42,28.30
2021,08,11,11,43,28.30
2021,08,11,11,44,28.30
2021,08,11,11,45,28.40
2021,08,11,11,46,28.40
2021,08,11,11,47,28.40
2021,08,11,11,48,28.40
2021,08,11,11,49,28.50
2021,08,11,11,50,28.50
2021,08,11,11,51,28.40
2021,08,11,11,52,28.50
2021,08,11,11,53,28.60
2021,08,11,11,54,28.70
2021,08,11,11,55,28.60
2021,08,11,11,56,28.60
2021,08,11,11,57,28.60
2021,08,11,11,58,28.60
2021,08,11,11,59,28.60
2021,08,11,12,00,28.70
2021,08,11,12,01,28.70
2021,08,11,12,02,28.80
2021,08,11,12,03,28.80
2021,08,11,12,04,28.90
2021,08,11,12,05,28.90
2021,08,11,12,06,28.90
2021,08,11,12,07,28.90
2021,08,11,12,08,28.80
2021,08,11,12,09,28.50
2021,08,11,12,10,28.20
2021,08,11,12,11,28.10
2021,08,11,12,12,28.10
2021,08,11,12,13,28.20
2021,08,11,12,14,28.30
2021,08,11,12,15,28.40
2021,08,11,12,16,28.40
2021,08,11,12,17,28.30
2021,08,11,12,18,28.30
2021,08,11,12,19,28.30
2021,08,11,12,20,28.40
2021,08,11,12,21,28.40
2021,08,11,12,22,28.30
2021,08,11,12,23,28.20
2021,08,11,12,24,28.30
2021,08,11,12,25,28.30
2021,08,11,12,26,28.30
2021,08,11,12,27,28.30
2021,08,11,12,28,28.20
2021,08,11,12,29,28.20
2021,08,11,12,30,28.30
2021,08,11,12,31,28.40
2021,08,11,12,32,28.50
2021,08,11,12,33,28.60
2021,08,11,12,34,28.70
2021,08,11,12,35,28.70
2021,08,11,12,36,28.70
2021,08,11,12,37,28.80
2021,08,11,12,38,28.80
2021,08,11,12,39,28.80
2021,08,11,12,40,28.70
2021,08,11,12,41,28.80
2021,08,11,12,42,28.80
2021,08,11,12,43,28.70
2021,08,11,12,44,28.80
2021,08,11,12,45,28.80
2021,08,11,12,46,28.90
2021,08,11,12,47,28.90
2021,08,11,12,48,28.80
2021,08,11,12,49,28.70
2021,08,11,12,50,28.50
2021,08,11,12,51,28.40
2021,08,11,12,52,28.40
2021,08,11,12,53,28.40
2021,08,11,12,54,28.50
2021,08,11,12,55,28.60
2021,08,11,12,56,28.70
2021,08,11,12,57,28.90
2021,08,11,12,58,28.90
2021,08,11,12,59,28.90
2021,08,11,13,00,28.90
2021,08,11,13,01,29.00
2021,08,11,13,02,29.10
2021,08,11,13,03,29.10
2021,08,11,13,04,29.10
2021,08,11,13,05,29.10
2021,08,11,13,06,29.10
2021,08,11,13,07,29.20
2021,08,11,13,08,29.30
2021,08,11,13,09,29.40
2021,08,11,13,10,29.50
2021,08,11,13,11,29.60
2021,08,11,13,12,29.60
2021,08,11,13,13,29.60
2021,08,11,13,14,29.70
2021,08,11,13,15,29.80
2021,08,11,13,16,29.90
2021,08,11,13,17,30.00
2021,08,11,13,18,30.20
2021,08,11,13,19,30.20
2021,08,11,13,20,30.20
2021,08,11,13,21,30.20
2021,08,11,13,22,30.20
2021,08,11,13,23,30.20
2021,08,11,13,24,30.30
2021,08,11,13,25,30.30
2021,08,11,13,26,30.30
2021,08,11,13,27,30.30
2021,08,11,13,28,30.30
2021,08,11,13,29,30.50
2021,08,11,13,30,30.40
2021,08,11,13,31,30.20
2021,08,11,13,32,30.20
2021,08,11,13,33,30.40
2021,08,11,13,34,30.50
2021,08,11,13,35,30.60
2021,08,11,13,36,30.70
2021,08,11,13,37,30.70
2021,08,11,13,38,30.70
2021,08,11,13,39,30.60
2021,08,11,13,40,30.30
2021,08,11,13,41,30.30
2021,08,11,13,42,30.50
2021,08,11,13,43,30.60
2021,08,11,13,44,30.80
2021,08,11,13,45,30.90
2021,08,11,13,46,30.80
2021,08,11,13,47,30.80
2021,08,11,13,48,30.80
2021,08,11,13,49,30.80
2021,08,11,13,50,30.90
2021,08,11,13,51,30.90
2021,08,11,13,52,30.80
2021,08,11,13,53,30.80
2021,08,11,13,54,30.80
2021,08,11,13,55,30.70
2021,08,11,13,56,30.70
2021,08,11,13,57,30.60
2021,08,11,13,58,30.70
2021,08,11,13,59,30.70
2021,08,11,14,00,30.70
2021,08,11,14,01,30.80
2021,08,11,14,02,30.80
2021,08,11,14,03,30.80
2021,08,11,14,04,30.60
2021,08,11,14,05,30.60
2021,08,11,14,06,30.50
2021,08,11,14,07,30.40
2021,08,11,14,08,30.20
2021,08,11,14,09,30.20
2021,08,11,14,10,30.30
2021,08,11,14,11,30.30
2021,08,11,14,12,30.40
2021,08,11,14,13,30.50
2021,08,11,14,14,30.70
2021,08,11,14,15,30.80
2021,08,11,14,16,30.80
2021,08,11,14,17,30.90
2021,08,11,14,18,31.00
2021,08,11,14,19,31.10
2021,08,11,14,20,31.20
2021,08,11,14,21,31.30
2021,08,11,14,22,31.40
2021,08,11,14,23,31.50
2021,08,11,14,24,31.60
2021,08,11,14,25,31.60
2021,08,11,14,26,31.40
2021,08,11,14,27,31.20
2021,08,11,14,28,31.10
2021,08,11,14,29,31.20
2021,08,11,14,30,31.20
2021,08,11,14,31,31.20
2021,08,11,14,32,31.20
2021,08,11,14,33,31.10
2021,08,11,14,34,30.90
2021,08,11,14,35,30.80
2021,08,11,14,36,30.70
2021,08,11,14,37,30.70
2021,08,11,14,38,30.80
2021,08,11,14,39,30.90
2021,08,11,14,40,30.70
2021,08,11,14,41,30.50
2021,08,11,14,42,30.40
2021,08,11,14,43,30.40
2021,08,11,14,44,30.40
2021,08,11,14,45,30.60
2021,08,11,14,46,30.60
2021,08,11,14,47,30.50
2021,08,11,14,48,30.40
2021,08,11,14,49,30.20
2021,08,11,14,50,29.90
2021,08,11,14,51,29.50
2021,08,11,14,52,29.50
2021,08,11,14,53,29.60
2021,08,11,14,54,29.50
2021,08,11,14,55,29.50
2021,08,11,14,56,29.60
2021,08,11,14,57,29.60
2021,08,11,14,58,29.70
2021,08,11,14,59,29.80
2021,08,11,15,00,30.00
2021,08,11,15,01,30.20
2021,08,11,15,02,30.40
2021,08,11,15,03,30.40
2021,08,11,15,04,30.60
2021,08,11,15,05,30.60
2021,08,11,15,06,30.60
2021,08,11,15,07,30.70
2021,08,11,15,08,30.70
2021,08,11,15,09,30.70
2021,08,11,15,10,30.50
2021,08,11,15,11,30.40
2021,08,11,15,12,30.30
2021,08,11,15,13,30.30
2021,08,11,15,14,30.30
2021,08,11,15,15,30.20
2021,08,11,15,16,30.10
2021,08,11,15,17,29.90
2021,08,11,15,18,29.70
2021,08,11,15,19,29.50
2021,08,11,15,20,29.20
2021,08,11,15,21,29.20
2021,08,11,15,22,29.20
2021,08,11,15,23,29.30
2021,08,11,15,24,29.30
2021,08,11,15,25,29.50
2021,08,11,15,26,29.40
2021,08,11,15,27,29.30
2021,08,11,15,28,29.30
2021,08,11,15,29,29.30
2021,08,11,15,30,29.40
2021,08,11,15,31,29.50
2021,08,11,15,32,29.60
2021,08,11,15,33,29.70
2021,08,11,15,34,29.90
2021,08,11,15,35,30.10
2021,08,11,15,36,30.20
2021,08,11,15,37,30.40
2021,08,11,15,38,30.60
2021,08,11,15,39,30.70
2021,08,11,15,40,30.80
2021,08,11,15,41,30.90
2021,08,11,15,42,31.00
2021,08,11,15,43,31.00
2021,08,11,15,44,31.10
2021,08,11,15,45,31.30
2021,08,11,15,46,31.40
2021,08,11,15,47,31.50
2021,08,11,15,48,31.60
2021,08,11,15,49,31.60
2021,08,11,15,50,31.50
2021,08,11,15,51,31.40
2021,08,11,15,52,31.40
2021,08,11,15,53,31.50
2021,08,11,15,54,31.60
2021,08,11,15,55,31.60
2021,08,11,15,56,31.60
2021,08,11,15,57,31.60
2021,08,11,15,58,31.70
2021,08,11,15,59,31.70
2021,08,11,16,00,31.70
2021,08,11,16,01,31.70
2021,08,11,16,02,31.70
2021,08,11,16,03,31.80
2021,08,11,16,04,31.80
2021,08,11,16,05,31.90
2021,08,11,16,06,32.10
2021,08,11,16,07,32.10
2021,08,11,16,08,32.10
2021,08,11,16,09,32.10
2021,08,11,16,10,32.20
2021,08,11,16,11,32.20
2021,08,11,16,12,32.20
2021,08,11,16,13,32.30
2021,08,11,16,14,32.20
2021,08,11,16,15,32.10
2021,08,11,16,16,32.00
2021,08,11,16,17,31.90
2021,08,11,16,18,31.90
2021,08,11,16,19,31.90
2021,08,11,16,20,31.90
2021,08,11,16,21,32.00
2021,08,11,16,22,32.00
2021,08,11,16,23,31.90
2021,08,11,16,24,31.90
2021,08,11,16,25,31.90
2021,08,11,16,26,31.80
2021,08,11,16,27,31.60
2021,08,11,16,28,31.60
2021,08,11,16,29,31.50
2021,08,11,16,30,31.50
2021,08,11,16,31,31.60
2021,08,11,16,32,31.60
2021,08,11,16,33,31.60
2021,08,11,16,34,31.70
2021,08,11,16,35,31.70
2021,08,11,16,36,31.70
2021,08,11,16,37,31.80
2021,08,11,16,38,31.70
2021,08,11,16,39,31.70
2021,08,11,16,40,31.70
2021,08,11,16,41,31.70
2021,08,11,16,42,31.70
2021,08,11,16,43,31.60
2021,08,11,16,44,31.60
2021,08,11,16,45,31.40
2021,08,11,16,46,31.00
2021,08,11,16,47,30.80
2021,08,11,16,48,30.50
2021,08,11,16,49,30.30
2021,08,11,16,50,30.30
2021,08,11,16,51,30.20
2021,08,11,16,52,30.10
2021,08,11,16,53,29.90
2021,08,11,16,54,29.80
2021,08,11,16,55,29.90
2021,08,11,16,56,29.90
2021,08,11,16,57,29.90
2021,08,11,16,58,30.00
2021,08,11,16,59,30.10
2021,08,11,17,00,29.90
2021,08,11,17,01,29.80
2021,08,11,17,02,29.60
2021,08,11,17,03,29.50
2021,08,11,17,04,29.50
2021,08,11,17,05,29.30
2021,08,11,17,06,29.20
2021,08,11,17,07,29.20
2021,08,11,17,08,29.20
2021,08,11,17,09,29.20
2021,08,11,17,10,29.10
2021,08,11,17,11,29.10
2021,08,11,17,12,29.10
2021,08,11,17,13,29.30
2021,08,11,17,14,29.40
2021,08,11,17,15,29.40
2021,08,11,17,16,29.40
2021,08,11,17,17,29.50
2021,08,11,17,18,29.50
2021,08,11,17,19,29.50